Miscellaneous Local Product
Issued by NWS North Platte, NE

Home | Current Version | Previous Version | Graphics & Text | Print | Product List | Glossary On
Versions: 1 2 3 4 5 6 7 8 9 10 11 12 13 14 15 16 17 18 19 20 21 22 23 24 25 26 27 28 29 30 31 32 33 34 35 36 37 38 39 40 41 42 43 44 45 46 47 48 49 50
000
AXUS43 KLBF 261010
MISLBF


WESTERN AND NORTH CENTRAL NEBRASKA HOURLY WEATHER ROUNDUP
NATIONAL WEATHER SERVICE NORTH PLATTE NE
500 AM CDT FRI MAY 26 2017

NOTE: "FAIR" INDICATES FEW OR NO CLOUDS BELOW 12,000 FEET WITH NO
SIGNIFICANT WEATHER AND/OR OBSTRUCTIONS TO VISIBILITY.

NOTE: STATIONS NOT REPORTING VARIABLES SUCH AS SKY/WEATHER OR
PRESSURE ARE PROVIDED BY RAWS AND APRS NETWORKS AND ARE NOT UNDER
NATIONAL WEATHER SERVICE QUALITY CONTROL.

...OBSERVATIONS IN AND NEAR THE EASTERN PANHANDLE OF NEBRASKA...

CITY           SKY/WX    TMP DP  RH WIND       PRES   REMARKS
PINE RIDGE     PTCLDY    42  40  92 CALM      29.89S
GORDON         FAIR      42  38  84 NW3       29.89R
CHADRON        PTCLDY    46  38  73 W14       29.90R
ALLIANCE       CLEAR     41  38  89 W3        29.90R
SIDNEY         CLOUDY    43  41  93 NW8       29.93R
CRESCENT LAKE    N/A     45  42  88 NW7         N/A
$$

...OBSERVATIONS IN NORTHERN NEBRASKA AND FAR SOUTHERN SOUTH DAKOTA...

CITY           SKY/WX    TMP DP  RH WIND       PRES   REMARKS
WINNER         FAIR      52  43  71 W12       29.81R
VALENTINE      PTCLDY    47  39  74 NW7       29.84R
THEDFORD       PTCLDY    51  42  71 CALM      29.86R
AINSWORTH      MOCLDY    53  43  70 NW12      29.83R
O`NEILL        CLOUDY    56  43  62 NW13      29.78R
ORD            MOCLDY    56  43  61 NW15      29.77R
BROKEN BOW     MOCLDY    56  44  64 N16       29.81R
VALENTINE NWR    N/A     51  40  66 N10G17      N/A
HALSEY           N/A     52  42  69 NW6         N/A
BUTTE            N/A     54  45  71 N13G20      N/A
CHAMBERS         N/A     55  44  66 CALM        N/A
EWING            N/A     58  47  68 N12         N/A
$$

...OBSERVATIONS IN SOUTHWEST NEBRASKA AND FAR NORTHEAST COLORADO...

CITY           SKY/WX    TMP DP  RH WIND       PRES   REMARKS
WRAY           FAIR      54  50  87 W8        29.89S
IMPERIAL       CLOUDY    55  50  83 NW10      29.84R
OGALLALA       CLOUDY    53  45  72 N13G18    29.87S
NORTH PLATTE   PTCLDY    53  46  77 N9        29.83S
MCCOOK         PTCLDY    56  54  93 NW9       29.78R
LEXINGTON      MOCLDY    60  52  75 N18       29.78R
STAPLETON        N/A     50  44  79 CALM        N/A
GOTHENBURG       N/A     61  49  65 NW9         N/A
CALLAWAY         N/A     56  50  81 N12         N/A
$$

...OBSERVATIONS IN CENTRAL LINCOLN COUNTY AREA...

CITY           SKY/WX    TMP DP  RH WIND       PRES   REMARKS
N.P. AIRPORT   PTCLDY    53  46  77 N9        29.83S
N.P. DOWNTOWN    N/A     53  45  75 N3G12       N/A
N.P. SOUTHEAST   N/A     54  45  71 N5          N/A
N.P. HILLCREST   N/A     52  45  77 N12G18      N/A
$$

...SOME OBSERVATIONS FROM AROUND THE REGION...

CITY           SKY/WX    TMP DP  RH WIND       PRES   REMARKS
DENVER         CLOUDY    46  43  89 SW7       29.96R
LIMON          LGT RAIN  47  46  97 S8        29.97S
ASPEN          CLOUDY    44  40  85 SE9       30.05F
LARAMIE        CLEAR     33  30  88 SE8       29.96S WCI  26
CASPER         CLOUDY    44  38  79 E6        29.94S
CHEYENNE       CLEAR     38  33  82 NW8       29.97S WCI  32
SCOTTSBLUFF    CLEAR     42  35  76 NW6       29.93S
GRAND ISLAND   PTCLDY    60  55  83 NW8       29.71R
OMAHA          CLOUDY    65  55  70 SE6       29.63F
SIOUX FALLS    CLOUDY    52  50  93 CALM      29.68R
PIERRE         CLEAR     51  41  68 NW14      29.77R
RAPID CITY     CLEAR     38  32  79 CALM      29.88R
BISMARCK       CLEAR     49  42  77 W9        29.70R
KANSAS CITY    CLOUDY    64  60  87 S17G28    29.57R
HILL CITY      PTCLDY    56  53  90 CALM      29.74R
WICHITA        PTCLDY    65  61  87 E8        29.59R
DODGE CITY     CLEAR     57  53  86 N10       29.74R
OKLAHOMA CITY  PTCLDY    73  61  65 SW15      29.56R
DALLAS         CLOUDY    76  70  82 S16G25    29.69R
AMARILLO       CLOUDY    57  47  69 NW16      29.80R
$$




USA.gov is the U.S. government's official web portal to all federal, state and local government web resources and services.